Location: Waco, TX
(31.5480°N, 97.1670°W)
Time: 22:57:03
(UTC-05:00)

ISS - Pass Details

Date: 19 April 2018
Orbit: 403 x 406 km, 51.6° (Epoch: 23 April)

Event Time Altitude Azimuth Distance (km) Brightness Sun altitude
Rises 18:07:35 0° 316° (NW) 2,324 0.7 22.9°
Reaches altitude 10° 18:09:40 10° 317° (NW) 1,462 -0.3 22.5°
Maximum altitude 18:12:57 81° 46° (NE) 414 -3.5 21.8°
Drops below altitude 10° 18:16:12 10° 133° (SE) 1,455 -1.4 21.1°
Sets 18:18:17 0° 134° (SE) 2,312 -0.4 20.7°
